Location: Bambrugge
(50.9212°N, 3.9299°E)
Time: 11:27:15
(UTC+00:00)

Cosmos 2181 Rocket - Pass Details

Date: 23 May 2024
Orbit: 951 x 1014 km, 82.9° (Epoch: 14 June)

Event Time Altitude Azimuth Distance (km) Brightness Sun altitude
Rises 01:47:48 0° 351° (N) 3,748 7.9 -13.2°
Reaches altitude 10° 01:50:23 10° 354° (N) 2,787 7.2 -13.0°
Maximum altitude 01:56:46 68° 77° (ENE) 1,067 4.4 -12.5°
Drops below altitude 10° 02:03:00 10° 161° (SSE) 2,726 6.0 -11.9°
Sets 02:05:31 0° 163° (SSE) 3,661 6.6 -11.7°
